Location: Miss�
(46.9484°N, 0.1922°W)
Time: 02:20:59
(UTC+00:00)

CSL-04 Rocket - Pass Details

Date: 02 March 2021
Orbit: 805 x 861 km, 98.9° (Epoch: 12 April)

Event Time Altitude Azimuth Distance (km) Brightness Sun altitude
Rises 18:38:57 0° 151° (SSE) 3,426 6.6 -9.5°
Reaches altitude 10° 18:41:21 10° 148° (SSE) 2,491 5.8 -9.9°
Maximum altitude 18:46:47 59° 70° (ENE) 985 3.8 -10.8°
Drops below altitude 10° 18:52:12 10° 352° (N) 2,487 6.3 -11.8°
Sets 18:54:36 0° 349° (N) 3,420 7.0 -12.2°
